Regional Weather Roundup
Issued by NWS

Home | Current Version | Previous Version | Text Only | Print | Product List | Glossary Off
Versions: 1 2 3 4 5 6 7 8 9 10 11 12 13 14 15 16 17 18 19 20 21 22 23 24 25 26 27 28 29 30 31 32 33 34 35 36 37 38 39 40 41 42 43 44 45 46 47 48 49 50

000
ASUS45 KBOU 020107
RWRCO

WEATHER ROUNDUP FOR COLORADO
NATIONAL WEATHER SERVICE DENVER/BOULDER CO
700 PM MDT TUE SEP 01 2015

NOTE: "FAIR" INDICATES FEW OR NO CLOUDS BELOW 12000 FEET WITH NO
SIGNIFICANT WEATHER AND/OR OBSTRUCTIONS TO VISIBILITY.

COZ001>005-013-030-031-020200-
...NORTHWEST COLORADO...

CITY           SKY/WX    TMP DP  RH WIND       PRES   REMARKS
CRAIG          CLOUDY    70  41  34 S15       30.16R
HAYDEN         NOT AVBL
MEEKER         LGT RAIN  59  52  77 NW6       30.23R
MOUNT WERNER   NOT AVBL
STEAMBOAT SPGS CLOUDY    66  46  49 CALM      30.22S
WALDEN         CLOUDY    61  36  39 SW10      30.30S
$$

COZ006>008-011-020200-
...WEST CENTRAL VALLEYS...

CITY           SKY/WX    TMP DP  RH WIND       PRES   REMARKS
GRAND JUNCTION LGT RAIN  72  51  47 N20G26    30.08R
MONTROSE       PTCLDY    82  44  26 E5        30.10F
EAGLE          PTCLDY    77  39  25 E6        30.18F
RIFLE          LGT RAIN  72  51  47 SW8       30.11R
DELTA          PTCLDY    87  40  19 SW6       30.05R HAZE
NUCLA          PTCLDY    79  36  21 W9        30.16R
$$

COZ017>023-064>068-020200-
...SOUTHWEST COLORADO...

CITY           SKY/WX    TMP DP  RH WIND       PRES   REMARKS
DURANGO        MOCLDY    78  42  27 S7        30.18F
CORTEZ         CLEAR     80  46  30 S12       30.13S
PAGOSA SPRINGS MOCLDY    76  36  23 SW8       30.27S
TELLURIDE      CLOUDY    59  48  65 E9        30.40R
WOLF CREEK PAS CLOUDY    46  39  76 W8        30.62S
$$

COZ009-010-012-014-032>034-037-058>063-020200-
...CENTRAL COLORADO...

CITY           SKY/WX    TMP DP  RH WIND       PRES   REMARKS
ASPEN          PTCLDY    70  43  37 W7        30.25S
BUENA VISTA    MOCLDY    68  37  32 E8        30.27R
COPPER MTN     CLOUDY    54  32  43 W12       30.59S
BERTHOUD PASS  MOCLDY    43  32  65 N12       30.64S
COTTONWOOD PAS CLOUDY    63  36  36 SE8       30.42R
GUNNISON       MOCLDY    72  37  28 S8        30.27R
KREMMLING      PTCLDY    64  41  42 CALM      30.27F
LEADVILLE      MOCLDY    59  36  42 E3        30.40F
MONARCH PASS   MOCLDY    50  36  57 S10       30.69S
SALIDA         MOCLDY    73  37  27 E7        30.31R
SUNLIGHT       PTCLDY    55  45  67 NW5       30.52S
WILKERSON PASS PTCLDY    55  34  44 S7        30.55F
$$

COZ069>075-020200-
...SAN LUIS VALLEY/SANGRE DE CRISTO MOUNTAINS...

CITY           SKY/WX    TMP DP  RH WIND       PRES   REMARKS
ALAMOSA        MOCLDY    73  44  35 S3        30.24S
LA VETA PASS   PTCLDY    61  34  36 S5        30.45S
SAGUACHE       MOCLDY    61  52  72 NW5       30.31F
$$

COZ035-036-038>040-020200-
...NORTHERN COLORADO FRONT RANGE...

CITY           SKY/WX    TMP DP  RH WIND       PRES   REMARKS
DENVER INTL AP MOCLDY    73  50  44 E10       30.07F
DMNS CITY PARK   N/A     78  42  27 E7G14     30.06S
AURORA         MOCLDY    77  44  30 NE13G20   30.10R
FRONT RANGE AP NOT AVBL
ERIE MUNI ARPT MOCLDY    81  43  25 CALM      30.04S
BOULDER MUN AP MOCLDY    81  43  26 CALM      30.05F
CENTENNIAL     MOCLDY    78  42  27 VRB5      30.11R
BROOMFIELD     MOCLDY    82  43  24 NW6       30.09R
FORT COLLINS   MOCLDY    81  43  26 W6        30.02R
LONGMONT       MOCLDY    82  48  31 CALM      30.04F
$$

COZ041-046-047-076>085-087-088-020200-
...PIKES PEAK/PALMER DIVIDE AND SOUTHERN FOOTHILLS...

CITY           SKY/WX    TMP DP  RH WIND       PRES   REMARKS
COLO. SPRINGS  MOCLDY    66  52  60 NE16      30.16F
A. F. ACADEMY  LGT RAIN  68  49  51 VRB5      30.20F
ELLICOTT       TSTM     N/A N/A N/A N23G31    30.17R
FALCON         DRIZZLE   63  51  64 MISG      30.24F
FORT CARSON    MOCLDY    69  50  50 N16G23    30.12F
LIMON          PTCLDY    77  48  35 S3        30.07S
MONUMENT HILL  MOCLDY    64  45  48 S16G22    30.22F
TRINIDAD       MOCLDY    82  44  26 S8        30.08S
$$

COZ042>045-048>051-090-091-020200-
...NORTHEAST COLORADO...

CITY           SKY/WX    TMP DP  RH WIND       PRES   REMARKS
GREELEY ARPT   MOCLDY    81  46  30 W8        30.01R
AKRON          CLEAR     84  36  18 S6        30.01S
BURLINGTON     MOCLDY    79  54  41 SE10      30.00R
WRAY           CLOUDY    87  48  25 SE6       29.94S
STERLING       NOT AVBL
HOLYOKE        CLEAR     81  54  39 SE7       29.93F
FORT MORGAN    CLEAR     79  44  29 S5        29.99S
$$

COZ086-089-092>099-020200-
...SOUTHEAST COLORADO...

CITY           SKY/WX    TMP DP  RH WIND       PRES   REMARKS
PUEBLO         MOCLDY    83  47  28 N20G28    30.00R
LA JUNTA       PTCLDY    87  51  28 SE9       29.97S
LAMAR          MOCLDY    82  60  47 E7        29.94S
SPRINGFIELD      N/A     77  53  43 S22G28    30.03R
$$



USA.gov is the U.S. government's official web portal to all federal, state and local government web resources and services.